Weather History for KFSO - July, 2013

Change the Weather History Date:

Monday, July 29, 2013

  Actual Average (KPBG) Record (KPBG)
Temperature  
Mean Temperature 70 °F 69 °F  
Max Temperature 81 °F 80 °F 95 °F (1949)
Min Temperature 61 °F 59 °F 44 °F (1987)
Degree Days  
Heating Degree Days 0 0  
Month to date heating degree days 12  
Since 1 June heating degree days 97  
Since 1 July heating degree days 12  
Cooling Degree Days 5 5  
Month to date cooling degree days 139  
Year to date cooling degree days 209  
Since 1 June cooling degree days 201  
Growing Degree Days 20 (Base 50)    
Moisture  
Dew Point 59 °F    
Average Humidity 68    
Maximum Humidity 90    
Minimum Humidity 42    
Precipitation  
Precipitation 0.00 in - 1.53 in (1993)
Month to date precipitation  
Year to date precipitation  
Sea Level Pressure  
Sea Level Pressure 30.00 in    
Wind  
Wind Speed 1 mph (NW)    
Max Wind Speed 10 mph    
Max Gust Speed 22 mph    
Visibility 10 miles    
Events Rain    
T = Trace of Precipitation, MM = Missing Value Source: NWS Daily Summary

Daily Weather History Graph

Daily Weather History Graph

Search for Another Location

Airport or City:

Trip Planner

Search our weather history database for the weather conditions in past years. The results will help you decide how hot, cold, wet, or windy it might be!

Date:

Astronomy

Jul. 29, 2013 Rise Set
Actual Time 5:34 AM EDT 8:22 PM EDT
Civil Twilight 5:00 AM EDT 8:56 PM EDT
Nautical Twilight 4:17 AM EDT 9:39 PM EDT
Astronomical Twilight 3:27 AM EDT 10:29 PM EDT
Moon 11:54 PM EDT (7/29) 1:37 PM EDT (7/29)
Length of Visible Light 15h 55m
Length of Day
14h 47m
Waning Gibbous, 51% of the Moon is Illuminated
Jul 29
Waning Gibbous
Jul 29
Last Quarter
Aug 6
New
Aug 14
First Quarter
Aug 20
Full

Hourly Weather History & Observations

Time (EDT) Temp. Dew Point Humidity Pressure Visibility Wind Dir Wind Speed Gust Speed Precip Events Conditions
12:15 AM 66.9 °F 63.1 °F 88% 29.94 in 10.0 mi Calm Calm - N/A   Overcast
12:35 AM 67.1 °F 63.5 °F 88% 29.94 in 10.0 mi Calm Calm - N/A   Overcast
12:55 AM 67.1 °F 63.5 °F 88% 29.94 in 10.0 mi Calm Calm - N/A   Overcast
1:15 AM 67.1 °F 63.5 °F 88% 29.96 in 10.0 mi Calm Calm - N/A   Overcast
1:35 AM 67.1 °F 63.1 °F 87% 29.95 in 10.0 mi Calm Calm - N/A   Overcast
1:55 AM 67.1 °F 63.5 °F 88% 29.95 in 10.0 mi Calm Calm - N/A Rain Rain
2:15 AM 67.1 °F 63.5 °F 88% 29.96 in 10.0 mi SSE 3.5 mph - N/A Rain Light Rain
2:35 AM 67.1 °F 63.5 °F 88% 29.96 in 5.0 mi Calm Calm - N/A   Drizzle
2:55 AM 67.1 °F 63.9 °F 89% 29.95 in 7.0 mi ESE 3.5 mph - N/A   Light Drizzle
3:15 AM 67.1 °F 63.9 °F 89% 29.95 in 10.0 mi Calm Calm - N/A   Mostly Cloudy
3:35 AM 67.1 °F 63.9 °F 89% 29.96 in 10.0 mi Calm Calm - N/A   Mostly Cloudy
3:55 AM 67.1 °F 63.9 °F 89% 29.96 in 10.0 mi Calm Calm - N/A   Overcast
4:15 AM 66.4 °F 63.3 °F 90% 29.97 in 7.0 mi Calm Calm - N/A   Mostly Cloudy
4:35 AM 66.9 °F 63.7 °F 89% 29.98 in 10.0 mi Calm Calm - N/A   Mostly Cloudy
4:55 AM 64.4 °F 61.0 °F 89% 29.99 in 10.0 mi Calm Calm - N/A   Mostly Cloudy
5:15 AM 64.4 °F 59.9 °F 85% 29.99 in 7.0 mi Calm Calm - N/A   Overcast
5:35 AM 61.9 °F 58.1 °F 87% 29.99 in 10.0 mi Calm Calm - N/A   Mostly Cloudy
5:55 AM 61.9 °F 58.1 °F 87% 29.99 in 10.0 mi Calm Calm - N/A   Mostly Cloudy
6:15 AM 61.9 °F 58.6 °F 89% 29.99 in 7.0 mi Calm Calm - N/A   Mostly Cloudy
6:35 AM 62.6 °F 59.5 °F 90% 29.99 in 10.0 mi Calm Calm - N/A   Scattered Clouds
6:55 AM 63.7 °F 60.4 °F 89% 30.00 in 10.0 mi Calm Calm - N/A   Scattered Clouds
7:15 AM 65.7 °F 61.3 °F 86% 29.99 in 10.0 mi Calm Calm - N/A   Scattered Clouds
7:35 AM 69.3 °F 62.8 °F 80% 30.00 in 10.0 mi ESE 4.6 mph - N/A   Scattered Clouds
7:55 AM 69.4 °F 61.0 °F 74% 30.00 in 10.0 mi Calm Calm - N/A   Overcast
8:15 AM 69.4 °F 60.1 °F 72% 30.01 in 10.0 mi ESE 3.5 mph - N/A   Overcast
8:35 AM 69.4 °F 59.5 °F 71% 30.01 in 10.0 mi Calm Calm - N/A   Overcast
8:55 AM 69.4 °F 57.6 °F 66% 30.01 in 10.0 mi Calm Calm - N/A   Scattered Clouds
9:15 AM 72.0 °F 58.1 °F 62% 30.01 in 10.0 mi Calm Calm - N/A   Clear
9:35 AM 73.0 °F 59.2 °F 62% 30.01 in 10.0 mi Calm Calm - N/A   Clear
9:55 AM 74.5 °F 57.7 °F 56% 30.01 in 10.0 mi SW 3.5 mph - N/A   Clear
10:15 AM 74.5 °F 54.1 °F 49% 30.01 in 10.0 mi WSW 3.5 mph - N/A   Clear
10:35 AM 75.6 °F 55.6 °F 50% 30.02 in 10.0 mi Calm Calm - N/A   Clear
10:55 AM 74.5 °F 53.6 °F 48% 30.01 in 10.0 mi Calm Calm - N/A   Clear
11:15 AM 77.0 °F 53.6 °F 44% 30.00 in 10.0 mi Calm Calm - N/A   Clear
11:35 AM 77.0 °F 54.3 °F 45% 30.00 in 10.0 mi Calm Calm - N/A   Clear
11:55 AM 78.1 °F 53.4 °F 42% 30.00 in 10.0 mi SE 3.5 mph - N/A   Clear
12:15 PM 79.7 °F 55.8 °F 44% 30.00 in 10.0 mi SSE 5.8 mph - N/A   Scattered Clouds
12:35 PM 79.5 °F 55.4 °F 43% 30.00 in 5.0 mi South 4.6 mph - N/A   Haze
12:55 PM 78.3 °F 55.8 °F 46% 29.99 in 10.0 mi SSW 3.5 mph - N/A   Mostly Cloudy
1:15 PM 77.0 °F 57.6 °F 51% 30.00 in 10.0 mi Calm Calm - N/A   Overcast
1:35 PM 77.0 °F 58.8 °F 53% 30.00 in 10.0 mi Calm Calm - N/A   Overcast
1:55 PM 74.5 °F 59.2 °F 59% 29.99 in 10.0 mi NW 3.5 mph - N/A   Overcast
2:15 PM 79.2 °F 58.1 °F 48% 29.99 in 10.0 mi NNW 3.5 mph - N/A   Mostly Cloudy
2:35 PM 77.0 °F 57.2 °F 50% 29.99 in 10.0 mi West 3.5 mph - N/A   Mostly Cloudy
2:55 PM 79.7 °F 57.4 °F 46% 29.99 in 10.0 mi North 3.5 mph - N/A   Scattered Clouds
3:15 PM 79.9 °F 56.3 °F 44% 29.99 in 10.0 mi WSW 5.8 mph - N/A   Scattered Clouds
3:35 PM 77.5 °F 57.7 °F 50% 30.00 in 10.0 mi WNW 10.4 mph 21.9 mph N/A   Scattered Clouds
3:55 PM 74.5 °F 58.3 °F 57% 30.01 in 10.0 mi NNW 6.9 mph 16.1 mph N/A   Scattered Clouds
4:15 PM 72.1 °F 58.3 °F 62% 30.01 in 10.0 mi North 5.8 mph - N/A   Mostly Cloudy
4:35 PM 70.0 °F 57.6 °F 65% 30.01 in 10.0 mi North 6.9 mph - N/A   Overcast
4:55 PM 70.9 °F 58.5 °F 65% 30.01 in 10.0 mi NNW 4.6 mph - N/A   Mostly Cloudy
5:15 PM 72.0 °F 59.2 °F 64% 30.01 in 10.0 mi NNW 4.6 mph - N/A   Overcast
5:35 PM 76.8 °F 59.0 °F 54% 30.00 in 10.0 mi NW 5.8 mph - N/A   Overcast
5:55 PM 76.8 °F 56.3 °F 49% 30.01 in 10.0 mi NW 3.5 mph - N/A   Scattered Clouds
6:15 PM 73.6 °F 56.5 °F 55% 30.01 in 10.0 mi North 3.5 mph - N/A   Clear
6:35 PM 72.0 °F 56.3 °F 58% 30.01 in 10.0 mi Calm Calm - N/A   Clear
6:55 PM 74.5 °F 57.4 °F 55% 30.00 in 10.0 mi Calm Calm - N/A   Clear
7:15 PM 74.5 °F 57.2 °F 55% 30.01 in 10.0 mi North 4.6 mph - N/A   Clear
7:35 PM 69.4 °F 56.5 °F 63% 30.01 in 10.0 mi Calm Calm - N/A   Clear
7:55 PM 69.4 °F 58.1 °F 67% 30.02 in 10.0 mi Calm Calm - N/A   Scattered Clouds
8:15 PM 69.4 °F 57.2 °F 65% 30.03 in 10.0 mi East 3.5 mph - N/A   Overcast
8:35 PM 69.4 °F 57.7 °F 66% 30.04 in 10.0 mi ESE 4.6 mph - N/A   Overcast
8:55 PM 69.4 °F 57.7 °F 66% 30.05 in 10.0 mi Calm Calm - N/A   Overcast
9:15 PM 69.4 °F 58.5 °F 68% 30.05 in 10.0 mi ESE 3.5 mph - N/A   Overcast
9:35 PM 69.3 °F 59.2 °F 70% 30.06 in 10.0 mi Calm Calm - N/A   Mostly Cloudy
9:55 PM 67.1 °F 58.8 °F 75% 30.07 in 7.0 mi NW 4.6 mph - N/A Rain Rain
10:15 PM 64.4 °F 58.1 °F 80% 30.07 in 10.0 mi Calm Calm - N/A   Scattered Clouds
10:35 PM 64.4 °F 57.9 °F 79% 30.08 in 10.0 mi West 4.6 mph - N/A   Clear
10:55 PM 67.1 °F 52.9 °F 60% 30.08 in 10.0 mi West 3.5 mph - N/A   Mostly Cloudy
11:15 PM 68.4 °F 52.5 °F 57% 30.07 in 10.0 mi Calm Calm - N/A   Mostly Cloudy
11:35 PM 67.1 °F 52.0 °F 58% 30.07 in 10.0 mi Calm Calm - N/A   Mostly Cloudy
11:55 PM 62.8 °F 55.4 °F 77% 30.07 in 10.0 mi Calm Calm - N/A   Overcast